This demonstration page uses our WeatherBlox Daily Observations layout. Learn more.

41.55636, -103.73856

Hourly Observations for May 11, 2015

Temp ( °F °C ) Dew Point ( °F °C ) Humidity (%) Winds ( mph kmh ) Pressure ( in mb ) Visibility ( mi km ) Precip ( " mm )
12:53 am 00:53 Clear 32 0 27 -3 80 80 WNW 15 24 30.24 1024 10 16.09344 0 0
1:53 am 01:53 Clear 32 0 27 -3 80 80 WNW 14 22 30.24 1024 10 16.09344 0 0
2:53 am 02:53 Clear 32 0 27 -3 80 80 WNW 15 24 30.21 1023 10 16.09344 0 0
3:53 am 03:53 Clear 30 -1 25 -4 80 80 undefined N/A 30.24 1024 10 16.09344 0 0
4:53 am 04:53 Clear 30 -1 25 -4 80 80 WNW 9 15 30.24 1024 10 16.09344 0 0
5:53 am 05:53 Sunny 28 -2 25 -4 86 86 WNW 8 13 30.27 1025 10 16.09344 0 0
6:53 am 06:53 Sunny 30 -1 25 -4 80 80 WNW 12 19 30.27 1025 10 16.09344 0 0
7:53 am 07:53 Sunny 34 1 27 -3 75 75 WNW 12 19 30.24 1024 10 16.09344 0 0
8:53 am 08:53 Sunny 37 3 28 -2 70 70 W 14 22 30.21 1023 10 16.09344 0 0
9:53 am 09:53 Sunny 43 6 28 -2 57 57 WNW 16 26 30.18 1022 10 16.09344 0 0
10:09 am 10:09 Mostly Sunny 43 6 28 -2 57 57 W 12 19 30.18 1022 10 16.09344 0 0
10:53 am 10:53 Sunny 46 8 30 -1 53 53 W 15 24 30.15 1021 10 16.09344 0 0
11:53 am 11:53 Sunny 50 10 32 0 50 50 WNW 17 28 30.12 1020 10 16.09344 0 0
12:53 pm 12:53 Sunny 52 11 27 -3 38 38 WNW 20 31 30.12 1020 10 16.09344 0 0
1:53 pm 13:53 Sunny 54 12 27 -3 35 35 NW 21 33 30.09 1019 10 16.09344 0 0
2:53 pm 14:53 Sunny 54 12 27 -3 35 35 NNW 16 26 30.09 1019 10 16.09344 0 0
3:53 pm 15:53 Sunny 55 13 25 -4 31 31 NNW 9 15 30.09 1019 10 16.09344 0 0
4:53 pm 16:53 Sunny 55 13 19 -7 24 24 NNW 12 19 30.03 1017 10 16.09344 0 0
5:53 pm 17:53 Sunny 54 12 19 -7 26 26 NNE 3 6 30.06 1018 10 16.09344 0 0
6:53 pm 18:53 Sunny 52 11 27 -3 38 38 E 7 11 30.06 1018 10 16.09344 0 0
7:53 pm 19:53 Sunny 46 8 30 -1 53 53 SE 5 7 30.12 1020 10 16.09344 0 0
8:53 pm 20:53 Clear 43 6 30 -1 61 61 SSE 7 11 30.18 1022 10 16.09344 0 0
9:53 pm 21:53 Clear 39 4 30 -1 70 70 SE 7 11 30.21 1023 10 16.09344 0 0
10:53 pm 22:53 Clear 37 3 30 -1 75 75 E 7 11 30.24 1024 10 16.09344 0 0
11:53 pm 23:53 Clear 36 2 30 -1 81 81 E 3 6 30.24 1024 10 16.09344 0 0

Powered by AerisWeather